[[{"header":{"parameterUnit":"m.s-1","parameterCategory":2,"la1":30.2991,"la2":30.254,"lo1":-89.0895,"lo2":-89.0444,"dy":0.0017,"dx":0.0017,"nx":28,"ny":28,"refTime":"2023-05-01T21:00:00:Z","depth":"0","parameterNumber":2,"parameterNumberName":"U-component_of_CURRENTS"},"data":[0,0,0,0,0,0,0,0,0,0,0,0,0,0,0,0,0,0,0,0,0,0,0,0,0,0,0,0,0,0,0,0,0,0,0,0,0,0,0,0,0,0,0,0,0,0,0,0,0,0,0,0,0,0,0,0,0,0,0.2218,0.2219,0,0.2201,0.22,0.2199,0.2232,0.2234,0.2235,0.2237,0.2303,0.2304,0.2304,0,0,0,0,0,0,0,0,0,0,0,0,0,0.2214,0.2213,0.2218,0.2219,0.2219,0.2201,0.22,0.2199,0.2232,0.2234,0.2236,0.2238,0.2303,0.2304,0.2304,0,0,0,0,0,0,0,0,0,0,0,0,0,0.2202,0.2213,0.2218,0.2238,0.224,0.2201,0.22,0.2199,0.2231,0.2234,0.2236,0.2239,0.2303,0.2304,0.2304,0.2255,0,0,0.2305,0.2305,0,0,0,0,0,0,0,0,0.2202,0.2201,0.2235,0.2237,0.2239,0.2227,0.2223,0.2224,0.2231,0.2228,0.2237,0.224,0.2288,0.229,0.227,0.2258,0.2261,0.2305,0.2305,0.2305,0.2305,0,0,0,0,0,0,0,0.2203,0.2202,0.2205,0.2235,0.2238,0.2225,0.2226,0.2222,0.224,0.2228,0.2232,0.224,0.2289,0.227,0.2272,0.2262,0.2305,0.2305,0.2305,0.2305,0.2196,0.2193,0,0,0,0,0,0,0.2219,0.2203,0.2206,0.2205,0.2234,0.2224,0.2225,0.2223,0.2239,0.2245,0.2238,0.2241,0.2268,0.2272,0.2275,0.2232,0.2305,0.2305,0.2305,0.2199,0.2196,0.2192,0,0,0,0,0,0,0.2219,0.2219,0.2206,0.2209,0.2208,0.2223,0.2219,0.2221,0.2195,0.2246,0.2253,0.2211,0.227,0.2275,0.2258,0.2236,0.2305,0.2306,0.2203,0.2198,0.2194,0.2139,0,0,0,0,0,0,0.2218,0.2218,0.2196,0.221,0.2209,0.2176,0.2218,0.2219,0.22,0.2204,0.2225,0.2234,0.2272,0.2257,0.2258,0.2237,0.2306,0.2207,0.2201,0.2195,0.2145,0.2133,0.2123,0,0,0,0,0,0.2218,0.2195,0.2194,0.2194,0.2185,0.2175,0.217,0.2186,0.2196,0.2172,0.2185,0.2233,0.2222,0.2254,0.2257,0.2236,0.221,0.2203,0.2196,0.215,0.2135,0.2123,0,0,0,0,0,0,0.2174,0.2197,0.2197,0.2178,0.2171,0.2183,0.2167,0.2165,0.2149,0.2161,0.2196,0.2204,0.2188,0.2196,0.2231,0.218,0.2221,0.2214,0.2185,0.2172,0.2161,0.2162,0.2306,0,0,0,0,0,0.2153,0.2143,0.2158,0.2133,0.2138,0.2138,0.2127,0.2139,0.2142,0.2137,0.2152,0.2158,0.2155,0.2153,0.216,0.2121,0.213,0.2103,0.2092,0.2083,0.2079,0.2055,0.2043,0.217,0.217,0.217,0,0,0.2123,0.2138,0.2125,0.2122,0.2123,0.2101,0.2137,0.2127,0.2101,0.2147,0.2113,0.2129,0.2136,0.2111,0.2101,0.2119,0.2047,0.2074,0.2068,0.2069,0.2047,0.2035,0.2025,0.2165,0.2166,0.2167,0,0,0.2075,0.2078,0.2058,0.2044,0.2051,0.2063,0.2054,0.2059,0.2059,0.2026,0.2055,0.2043,0.2034,0.2036,0.2034,0.1951,0.1998,0.1951,0.1896,0.1872,0.1863,0.1855,0.1845,0.1837,0.1938,0.1938,0.1938,0,0.2026,0.2009,0.2043,0.2015,0.1999,0.204,0.2002,0.2,0.1992,0.1988,0.2014,0.198,0.1997,0.1953,0.1934,0.1932,0.1933,0.1956,0.1862,0.1854,0.1847,0.1839,0.1831,0.1935,0.1935,0.1935,0.1936,0,0.1967,0.1936,0.1926,0.191,0.1897,0.1872,0.1893,0.1885,0.1901,0.1904,0.1878,0.1886,0.1872,0.1863,0.1881,0.1823,0.1845,0.1864,0.1908,0.1832,0.1827,0.182,0.193,0.1931,0.1932,0.1933,0,0,0.1867,0.1882,0.186,0.1849,0.1837,0.1832,0.1806,0.18,0.1793,0.1787,0.1756,0.1741,0.1767,0.1761,0.1773,0.1744,0.1697,0.1779,0.1779,0.1791,0.1654,0.1672,0.1666,0.1707,0.1706,0.1704,0.1672,0,0.1791,0.1753,0.1762,0.1698,0.1688,0.1709,0.1694,0.1697,0.1708,0.1697,0.1704,0.1692,0.1721,0.172,0.1693,0.171,0.1674,0.1705,0.1706,0.1706,0.175,0.1656,0.1719,0.1695,0.1664,0.1663,0.1662,0,0.17,0.1701,0.1647,0.1647,0.1641,0.1612,0.1612,0.1598,0.1607,0.162,0.1605,0.1624,0.1593,0.1626,0.1599,0.1622,0.1626,0.1629,0.1629,0.1662,0.1709,0.1763,0.1683,0.1693,0.1651,0.1652,0.1652,0,0.1641,0.1601,0.1573,0.1554,0.1568,0.1554,0.1565,0.1576,0.1576,0.1568,0.1566,0.1548,0.1545,0.1536,0.1565,0.1579,0.154,0.1562,0.157,0.1573,0.1633,0.1644,0.1584,0.1514,0.1514,0.1514,0.1514,0,0.155,0.1508,0.1553,0.1527,0.1509,0.153,0.1509,0.152,0.1531,0.1519,0.1529,0.1509,0.1522,0.1514,0.1533,0.1535,0.1516,0.1541,0.1553,0.1613,0.1622,0.1642,0.1535,0.1513,0.1513,0.1513,0.1514,0,0.1463,0.148,0.1453,0.1476,0.148,0.1469,0.1485,0.1478,0.1502,0.1475,0.1472,0.1477,0.1483,0.1497,0.1491,0.1498,0.1439,0.1499,0.1577,0.1598,0.1611,0.1496,0.1194,0.1178,0.1489,0.1489,0.1489,0,0.1416,0.14,0.1415,0.14,0.1399,0.1404,0.141,0.1454,0.1452,0.1454,0.1437,0.1437,0.1441,0.1453,0.1499,0.1524,0.1424,0.1552,0.1573,0.1595,0.1476,0.1278,0.1274,0.1633,0.1634,0.1635,0.1636,0,0.1336,0.1343,0.1344,0.1325,0.1318,0.1318,0.1336,0.1345,0.1389,0.1391,0.1392,0.1394,0.1438,0.1495,0.1533,0.1562,0.1455,0.1571,0.157,0.154,0.1338,0.134,0.1679,0.1645,0.1644,0.1643,0.1643,0.1643,0.1284,0.1273,0.1283,0.1252,0.1239,0.1238,0.1249,0.1279,0.1303,0.1315,0.1345,0.1374,0.1469,0.1557,0.1604,0.1699,0.1486,0.1681,0.1528,0.1322,0.1309,0.1663,0.1657,0.1656,0.1655,0.1655,0.1654,0,0.1231,0.1227,0.1204,0.1192,0.1155,0.1173,0.1199,0.1218,0.125,0.1274,0.13,0.1419,0.1522,0.1633,0.1756,0.1709,0.1618,0.1616,0.1401,0.1401,0.1754,0.178,0.1829,0.1829,0.1829,0.1829,0.1829,0.1829,0.121,0.1186,0.1186,0.1128,0.1106,0.1103,0.1123,0.1143,0.1181,0.1226,0.1291,0.1355,0.149,0.1579,0.1679,0.1648,0.1452,0.1265,0.1183,0.1529,0.1527,0.1524,0.1536,0.1533,0.1532,0.0929,0.0923,0.0919]},{"header":{"parameterUnit":"m.s-1","parameterCategory":2,"la1":30.2991,"la2":30.254,"lo1":-89.0895,"lo2":-89.0444,"dy":0.0017,"dx":0.0017,"nx":28,"ny":28,"refTime":"2023-05-01T21:00:00:Z","depth":"0","parameterNumber":3,"parameterNumberName":"V-component_of_CURRENTS"},"data":[0,0,0,0,0,0,0,0,0,0,0,0,0,0,0,0,0,0,0,0,0,0,0,0,0,0,0,0,0,0,0,0,0,0,0,0,0,0,0,0,0,0,0,0,0,0,0,0,0,0,0,0,0,0,0,0,0,0,-0.0949,-0.0949,0,-0.0856,-0.0855,-0.0853,-0.0805,-0.0805,-0.0806,-0.0806,-0.0661,-0.0657,-0.0653,0,0,0,0,0,0,0,0,0,0,0,0,0,-0.1035,-0.1034,-0.0949,-0.0949,-0.0948,-0.0856,-0.0855,-0.0853,-0.0805,-0.0805,-0.0806,-0.0806,-0.0663,-0.0658,-0.0653,0,0,0,0,0,0,0,0,0,0,0,0,0,-0.0971,-0.1033,-0.0949,-0.0916,-0.0913,-0.0857,-0.0855,-0.0853,-0.0805,-0.0805,-0.0806,-0.0806,-0.0664,-0.0658,-0.0652,-0.0602,0,0,-0.0633,-0.063,0,0,0,0,0,0,0,0,-0.0975,-0.0968,-0.0922,-0.0919,-0.0914,-0.0847,-0.0832,-0.0768,-0.0805,-0.0841,-0.0806,-0.0807,-0.0721,-0.071,-0.0686,-0.0596,-0.0589,-0.0632,-0.0628,-0.0626,-0.0624,0,0,0,0,0,0,0,-0.098,-0.0971,-0.0908,-0.0921,-0.0917,-0.0889,-0.0881,-0.0819,-0.0775,-0.0838,-0.0835,-0.0832,-0.0718,-0.0692,-0.0682,-0.0587,-0.0632,-0.0627,-0.0623,-0.062,-0.042,-0.0419,0,0,0,0,0,0,-0.1002,-0.0975,-0.0911,-0.0905,-0.0952,-0.0888,-0.0878,-0.0864,-0.0776,-0.0765,-0.0832,-0.083,-0.0702,-0.0689,-0.0677,-0.0611,-0.0626,-0.062,-0.0616,-0.0422,-0.042,-0.0418,0,0,0,0,0,0,-0.1004,-0.0997,-0.0915,-0.0943,-0.0931,-0.0887,-0.0871,-0.0862,-0.0839,-0.0773,-0.076,-0.0819,-0.0702,-0.0685,-0.0613,-0.0605,-0.0617,-0.0611,-0.0424,-0.0421,-0.0419,-0.048,0,0,0,0,0,0,-0.1007,-0.0998,-0.0985,-0.0944,-0.0931,-0.0879,-0.0871,-0.086,-0.0839,-0.0836,-0.0758,-0.0745,-0.0701,-0.0622,-0.0607,-0.0597,-0.0606,-0.0426,-0.0423,-0.042,-0.048,-0.048,-0.048,0,0,0,0,0,-0.101,-0.099,-0.0984,-0.0977,-0.0917,-0.0879,-0.0868,-0.0836,-0.0838,-0.0819,-0.0765,-0.0747,-0.0593,-0.0616,-0.0598,-0.0586,-0.0427,-0.0424,-0.042,-0.048,-0.048,-0.048,0,0,0,0,0,0,-0.1006,-0.0982,-0.0976,-0.0945,-0.0917,-0.0873,-0.0851,-0.084,-0.0783,-0.0778,-0.0724,-0.0705,-0.0641,-0.0596,-0.0623,-0.0516,-0.0508,-0.0501,-0.056,-0.0559,-0.0559,-0.0582,-0.0601,0,0,0,0,0,-0.1005,-0.0991,-0.0961,-0.0936,-0.0925,-0.0892,-0.0871,-0.0853,-0.0806,-0.0783,-0.0732,-0.0669,-0.061,-0.0573,-0.0511,-0.0449,-0.044,-0.0427,-0.0428,-0.0428,-0.0431,-0.0414,-0.0415,-0.0407,-0.0407,-0.0407,0,0,-0.0996,-0.0983,-0.0972,-0.0936,-0.0911,-0.0884,-0.0879,-0.0849,-0.0826,-0.0774,-0.0717,-0.0667,-0.0593,-0.0527,-0.0494,-0.049,-0.0426,-0.0424,-0.0426,-0.0428,-0.0411,-0.0413,-0.0414,-0.0405,-0.0405,-0.0405,0,0,-0.0979,-0.0961,-0.0947,-0.0926,-0.0898,-0.0876,-0.0874,-0.0831,-0.0812,-0.0757,-0.0716,-0.0666,-0.0567,-0.052,-0.0483,-0.0442,-0.0431,-0.0416,-0.0432,-0.0417,-0.0418,-0.042,-0.0426,-0.0428,-0.0413,-0.0414,-0.0414,0,-0.0962,-0.0946,-0.0934,-0.0914,-0.0894,-0.0878,-0.0852,-0.0828,-0.0766,-0.0749,-0.0743,-0.0619,-0.0568,-0.0497,-0.0484,-0.0448,-0.0442,-0.0447,-0.0422,-0.0423,-0.0424,-0.043,-0.0431,-0.0416,-0.0416,-0.0415,-0.0415,0,-0.094,-0.0923,-0.0911,-0.0885,-0.0859,-0.0833,-0.0809,-0.0786,-0.0771,-0.0747,-0.0688,-0.0622,-0.0553,-0.0528,-0.0494,-0.0458,-0.0455,-0.0434,-0.0437,-0.0429,-0.0435,-0.0435,-0.042,-0.0419,-0.0418,-0.0417,0,0,-0.0896,-0.0897,-0.0886,-0.088,-0.0842,-0.0818,-0.0792,-0.0758,-0.0745,-0.0703,-0.0675,-0.0596,-0.058,-0.0537,-0.0492,-0.0478,-0.0487,-0.046,-0.0458,-0.0494,-0.047,-0.0502,-0.0505,-0.0466,-0.0466,-0.0466,-0.0481,0,-0.0874,-0.0851,-0.0849,-0.0814,-0.0798,-0.0782,-0.0756,-0.0727,-0.0707,-0.0677,-0.0643,-0.0592,-0.0578,-0.0546,-0.0533,-0.0485,-0.0486,-0.0486,-0.0448,-0.0447,-0.0499,-0.0505,-0.0467,-0.048,-0.0481,-0.0481,-0.0481,0,-0.0837,-0.0834,-0.0804,-0.0794,-0.0783,-0.076,-0.0723,-0.0699,-0.0669,-0.0655,-0.0625,-0.0596,-0.0559,-0.0554,-0.0513,-0.0514,-0.0502,-0.0483,-0.0482,-0.049,-0.0478,-0.0479,-0.0479,-0.0306,-0.0481,-0.0481,-0.0481,0,-0.0807,-0.0793,-0.0775,-0.0764,-0.0748,-0.0736,-0.0722,-0.069,-0.0669,-0.0643,-0.0625,-0.059,-0.0561,-0.0546,-0.0517,-0.0514,-0.0486,-0.0474,-0.0498,-0.05,-0.0449,-0.0448,-0.0299,-0.0464,-0.0464,-0.0464,-0.0464,0,-0.0769,-0.0749,-0.0767,-0.0752,-0.0726,-0.0722,-0.0691,-0.0675,-0.0653,-0.0621,-0.0613,-0.0581,-0.0558,-0.0538,-0.0524,-0.0518,-0.0496,-0.0511,-0.0506,-0.0469,-0.047,-0.03,-0.018,-0.0464,-0.0464,-0.0464,-0.0464,0,-0.0712,-0.0727,-0.0713,-0.0717,-0.0708,-0.0688,-0.067,-0.0651,-0.0642,-0.0602,-0.0594,-0.0571,-0.0551,-0.0538,-0.0508,-0.0523,-0.0401,-0.0515,-0.0491,-0.0483,-0.0368,-0.0252,-0.0101,0.0038,-0.0558,-0.0559,-0.056,0,-0.0681,-0.0673,-0.0674,-0.0665,-0.0663,-0.0646,-0.0625,-0.0628,-0.0615,-0.0588,-0.0566,-0.0549,-0.0518,-0.0513,-0.0545,-0.0557,-0.0377,-0.0529,-0.0521,-0.0362,-0.0228,-0.0145,-0.003,-0.0477,-0.0477,-0.0477,-0.0477,0,-0.0628,-0.0632,-0.0616,-0.0609,-0.0597,-0.0577,-0.0566,-0.0559,-0.0558,-0.0537,-0.051,-0.0488,-0.0509,-0.0511,-0.0551,-0.0544,-0.0344,-0.0533,-0.0349,-0.0142,-0.0055,0.0082,-0.0478,-0.0477,-0.0477,-0.0477,-0.0477,-0.0477,-0.058,-0.0565,-0.0564,-0.0546,-0.053,-0.0513,-0.0495,-0.0497,-0.0475,-0.0432,-0.0444,-0.0401,-0.0416,-0.0478,-0.0476,-0.0393,-0.0339,-0.0313,-0.0188,-0.0124,0.0031,-0.0555,-0.0559,-0.056,-0.056,-0.0561,-0.0561,0,-0.0532,-0.0526,-0.0507,-0.0489,-0.0462,-0.0471,-0.045,-0.0434,-0.041,-0.0368,-0.0336,-0.0296,-0.027,-0.0261,-0.023,-0.0078,0.0027,0.0082,0.0259,0.0361,-0.015,-0.0126,-0.0058,-0.0058,-0.0059,-0.0059,-0.0059,-0.0059,-0.0504,-0.0485,-0.0483,-0.0438,-0.0419,-0.0377,-0.0367,-0.0339,-0.032,-0.0238,-0.0197,-0.016,-0.0039,0.007,0.0271,0.0344,0.0683,0.0674,0.0841,0.0533,0.0507,0.0483,0.0533,0.0738,0.0739,0.1341,0.1347,0.1351]}],[{"header":{"parameterUnit":"m.s-1","parameterCategory":2,"la1":30.2991,"la2":30.254,"lo1":-89.0895,"lo2":-89.0444,"dy":0.0017,"dx":0.0017,"nx":28,"ny":28,"refTime":"2023-05-01T21:00:00:Z","depth":"2","parameterNumber":2,"parameterNumberName":"U-component_of_CURRENTS"},"data":[0,0,0,0,0,0,0,0,0,0,0,0,0,0,0,0,0,0,0,0,0,0,0,0,0,0,0,0,0,0,0,0,0,0,0,0,0,0,0,0,0,0,0,0,0,0,0,0,0,0,0,0,0,0,0,0,0,0,-0.2441,-0.2443,0,-0.2555,-0.2556,-0.2557,-0.2503,-0.25,-0.2498,-0.2495,-0.2438,-0.2439,-0.2439,0,0,0,0,0,0,0,0,0,0,0,0,0,-0.2271,-0.2273,-0.2441,-0.2443,-0.2445,-0.2555,-0.2556,-0.2557,-0.2503,-0.25,-0.2497,-0.2494,-0.2438,-0.2438,-0.2439,0,0,0,0,0,0,0,0,0,0,0,0,0,-0.2356,-0.2274,-0.2441,-0.2435,-0.2436,-0.2555,-0.2556,-0.2557,-0.2504,-0.25,-0.2496,-0.2493,-0.2437,-0.2438,-0.2439,-0.2521,0,0,-0.2443,-0.2443,0,0,0,0,0,0,0,0,-0.2351,-0.2362,-0.2434,-0.2435,-0.2437,-0.2515,-0.2475,-0.2538,-0.2505,-0.2473,-0.2495,-0.2491,-0.2454,-0.2453,-0.2479,-0.2518,-0.2516,-0.2443,-0.2444,-0.2444,-0.2445,0,0,0,0,0,0,0,-0.2345,-0.2357,-0.2481,-0.2436,-0.2438,-0.2459,-0.2465,-0.2488,-0.2476,-0.2475,-0.2473,-0.2494,-0.2452,-0.2478,-0.2476,-0.2515,-0.2443,-0.2444,-0.2445,-0.2445,-0.2446,-0.2445,0,0,0,0,0,0,-0.2341,-0.2352,-0.2478,-0.2485,-0.2389,-0.2465,-0.2472,-0.249,-0.2479,-0.2477,-0.2498,-0.2492,-0.2478,-0.2475,-0.2474,-0.2414,-0.2444,-0.2445,-0.2446,-0.2446,-0.2446,-0.2445,0,0,0,0,0,0,-0.2337,-0.2351,-0.2473,-0.2425,-0.2442,-0.2472,-0.2492,-0.2494,-0.245,-0.2499,-0.2491,-0.2444,-0.2475,-0.2472,-0.2439,-0.2417,-0.2446,-0.2447,-0.2447,-0.2446,-0.2445,-0.2394,0,0,0,0,0,0,-0.2331,-0.2349,-0.2317,-0.2425,-0.2445,-0.2505,-0.2496,-0.2499,-0.2476,-0.2467,-0.2452,-0.2447,-0.2472,-0.2438,-0.2441,-0.2419,-0.2448,-0.2448,-0.2447,-0.2445,-0.2396,-0.2391,-0.2387,0,0,0,0,0,-0.2325,-0.2315,-0.2315,-0.2328,-0.2415,-0.2505,-0.2516,-0.2522,-0.2476,-0.2464,-0.2442,-0.2444,-0.2431,-0.2438,-0.2442,-0.242,-0.2449,-0.2447,-0.2446,-0.2398,-0.2392,-0.2387,0,0,0,0,0,0,-0.2218,-0.2313,-0.2314,-0.2328,-0.239,-0.2496,-0.2476,-0.2487,-0.2467,-0.2418,-0.2442,-0.2438,-0.2401,-0.2419,-0.2426,-0.2416,-0.2438,-0.2438,-0.2401,-0.2396,-0.2391,-0.2402,-0.2449,0,0,0,0,0,-0.2187,-0.2189,-0.2301,-0.2294,-0.2322,-0.2382,-0.2398,-0.2412,-0.2436,-0.2419,-0.241,-0.24,-0.2417,-0.2405,-0.2416,-0.2415,-0.2415,-0.2401,-0.2396,-0.2392,-0.2403,-0.2393,-0.2388,-0.244,-0.244,-0.244,0,0,-0.2141,-0.2189,-0.2186,-0.2268,-0.2303,-0.2364,-0.2377,-0.2391,-0.2416,-0.2418,-0.2382,-0.2373,-0.241,-0.2406,-0.2392,-0.2406,-0.2368,-0.239,-0.2386,-0.2401,-0.2391,-0.2386,-0.2382,-0.2439,-0.2439,-0.2439,0,0,-0.2089,-0.2094,-0.2095,-0.2155,-0.2213,-0.228,-0.227,-0.2338,-0.2327,-0.2328,-0.233,-0.2305,-0.2315,-0.235,-0.2373,-0.2349,-0.2339,-0.2332,-0.2322,-0.2311,-0.2307,-0.2303,-0.2255,-0.2247,-0.2334,-0.2334,-0.2334,0,-0.2019,-0.2062,-0.2106,-0.2146,-0.2192,-0.2237,-0.2279,-0.2308,-0.2341,-0.2345,-0.2291,-0.2308,-0.2305,-0.2358,-0.2336,-0.234,-0.2313,-0.2341,-0.2304,-0.2301,-0.2298,-0.225,-0.2243,-0.2331,-0.2332,-0.2332,-0.2332,0,-0.2011,-0.2035,-0.2042,-0.2115,-0.2162,-0.22,-0.2284,-0.2283,-0.226,-0.2296,-0.2281,-0.2279,-0.2291,-0.2284,-0.2298,-0.2294,-0.227,-0.2293,-0.2318,-0.229,-0.224,-0.2234,-0.2328,-0.2329,-0.2329,-0.233,0,0,-0.1893,-0.2017,-0.201,-0.2058,-0.2153,-0.2207,-0.2243,-0.2327,-0.2335,-0.2315,-0.2321,-0.2325,-0.2286,-0.2308,-0.231,-0.2298,-0.2223,-0.227,-0.2271,-0.222,-0.2153,-0.189,-0.1857,-0.2227,-0.2226,-0.2226,-0.2111,0,-0.1872,-0.1959,-0.2019,-0.2089,-0.2158,-0.2226,-0.2271,-0.2326,-0.2338,-0.2342,-0.2342,-0.2323,-0.2313,-0.2272,-0.2266,-0.2245,-0.2209,-0.225,-0.2192,-0.219,-0.1957,-0.1842,-0.1875,-0.1754,-0.2105,-0.2104,-0.2103,0,-0.1842,-0.1925,-0.199,-0.2125,-0.2151,-0.2168,-0.225,-0.2291,-0.2337,-0.2332,-0.2327,-0.2318,-0.2303,-0.2268,-0.2228,-0.2244,-0.2182,-0.216,-0.2155,-0.1929,-0.1913,-0.1848,-0.1729,-0.2092,-0.2093,-0.2094,-0.2094,0,-0.177,-0.1899,-0.1949,-0.1994,-0.2141,-0.2134,-0.2176,-0.2241,-0.2268,-0.2278,-0.2261,-0.2287,-0.2217,-0.2208,-0.2112,-0.2166,-0.2027,-0.2113,-0.1829,-0.181,-0.1838,-0.1819,-0.2059,-0.2059,-0.2059,-0.2059,-0.206,0,-0.175,-0.1788,-0.1896,-0.1928,-0.1967,-0.2051,-0.2053,-0.2113,-0.2147,-0.2135,-0.2195,-0.2154,-0.2184,-0.2112,-0.2087,-0.1873,-0.1995,-0.1784,-0.1747,-0.1809,-0.179,-0.2108,-0.2116,-0.2055,-0.2056,-0.2057,-0.2058,0,-0.1648,-0.1729,-0.1799,-0.1912,-0.1924,-0.1918,-0.1966,-0.1975,-0.2011,-0.1984,-0.1966,-0.2012,-0.1883,-0.1881,-0.1813,-0.1757,-0.1652,-0.1544,-0.1569,-0.1531,-0.1471,-0.1478,-0.1271,-0.1261,-0.1252,-0.1244,-0.1238,0,-0.1614,-0.1629,-0.1735,-0.1733,-0.1747,-0.1759,-0.1761,-0.1861,-0.1873,-0.1867,-0.1839,-0.1725,-0.1642,-0.1439,-0.1324,-0.1194,-0.1324,-0.1112,-0.1216,-0.1396,-0.1384,-0.1405,-0.1423,-0.1256,-0.125,-0.1246,-0.1242,0,-0.1537,-0.1533,-0.1591,-0.1599,-0.1581,-0.1621,-0.1621,-0.1632,-0.1696,-0.1683,-0.1601,-0.1528,-0.1306,-0.1165,-0.0932,-0.0885,-0.1148,-0.0998,-0.1209,-0.139,-0.1355,-0.1351,-0.1376,-0.1201,-0.1205,-0.1208,-0.121,-0.1212,-0.1428,-0.1435,-0.1461,-0.1457,-0.1452,-0.1429,-0.1405,-0.143,-0.142,-0.1402,-0.1408,-0.1266,-0.119,-0.0811,-0.0713,-0.0613,-0.0678,-0.0766,-0.0795,-0.0826,-0.0783,-0.0728,-0.0449,-0.0448,-0.0448,-0.0448,-0.0448,0,-0.1336,-0.1328,-0.1316,-0.1322,-0.1278,-0.1296,-0.1288,-0.1292,-0.1222,-0.1202,-0.117,-0.095,-0.0847,-0.0726,-0.0514,-0.042,-0.0579,-0.043,-0.0738,-0.0775,-0.0809,-0.0782,-0.0439,-0.0438,-0.0438,-0.0437,0,0,-0.1279,-0.1249,-0.1261,-0.1156,-0.1114,-0.1023,-0.0984,-0.1031,-0.1028,-0.0896,-0.079,-0.0912,-0.0752,-0.0615,-0.0571,-0.0487,-0.0648,-0.0468,-0.0486,-0.0893,-0.0928,-0.1007,-0.1,0,0,0,0,0]},{"header":{"parameterUnit":"m.s-1","parameterCategory":2,"la1":30.2991,"la2":30.254,"lo1":-89.0895,"lo2":-89.0444,"dy":0.0017,"dx":0.0017,"nx":28,"ny":28,"refTime":"2023-05-01T21:00:00:Z","depth":"2","parameterNumber":3,"parameterNumberName":"V-component_of_CURRENTS"},"data":[0,0,0,0,0,0,0,0,0,0,0,0,0,0,0,0,0,0,0,0,0,0,0,0,0,0,0,0,0,0,0,0,0,0,0,0,0,0,0,0,0,0,0,0,0,0,0,0,0,0,0,0,0,0,0,0,0,0,0.0841,0.0841,0,0.0873,0.0874,0.0874,0.0894,0.0894,0.0894,0.0894,0.0899,0.0899,0.0899,0,0,0,0,0,0,0,0,0,0,0,0,0,0.0868,0.0867,0.0841,0.0841,0.0842,0.0873,0.0874,0.0874,0.0894,0.0894,0.0894,0.0894,0.0899,0.0899,0.0899,0,0,0,0,0,0,0,0,0,0,0,0,0,0.0874,0.0867,0.0841,0.0855,0.0856,0.0873,0.0874,0.0875,0.0894,0.0894,0.0894,0.0894,0.0899,0.0899,0.0899,0.0899,0,0,0.0899,0.0899,0,0,0,0,0,0,0,0,0.0874,0.0873,0.0852,0.0854,0.0855,0.0879,0.0885,0.0881,0.0894,0.088,0.0894,0.0894,0.0889,0.089,0.0897,0.0899,0.09,0.0899,0.0899,0.09,0.09,0,0,0,0,0,0,0,0.0873,0.0872,0.0855,0.0853,0.0854,0.0884,0.0884,0.0885,0.0884,0.0881,0.0883,0.0885,0.089,0.0897,0.0897,0.09,0.0899,0.0899,0.09,0.09,0.0944,0.0945,0,0,0,0,0,0,0.0864,0.0871,0.0854,0.0855,0.0864,0.0883,0.0883,0.0872,0.0885,0.0887,0.0885,0.0886,0.0897,0.0897,0.0898,0.0901,0.09,0.09,0.09,0.0943,0.0944,0.0945,0,0,0,0,0,0,0.0864,0.0861,0.0852,0.0865,0.0866,0.0882,0.0869,0.0873,0.0861,0.0888,0.0889,0.0867,0.0897,0.0897,0.0883,0.0901,0.09,0.09,0.0941,0.0943,0.0944,0.0906,0,0,0,0,0,0,0.0864,0.0861,0.0842,0.0863,0.0864,0.0838,0.0869,0.0873,0.0863,0.0864,0.0873,0.0875,0.0897,0.0883,0.0883,0.0902,0.09,0.094,0.0942,0.0944,0.0906,0.0906,0.0907,0,0,0,0,0,0.0865,0.0838,0.084,0.0838,0.0839,0.0837,0.0839,0.0853,0.0862,0.0845,0.0858,0.0874,0.0898,0.0882,0.0883,0.0902,0.0939,0.0941,0.0944,0.0906,0.0906,0.0907,0,0,0,0,0,0,0.084,0.0838,0.0841,0.0814,0.0814,0.0839,0.0827,0.0837,0.0836,0.0834,0.0861,0.0863,0.0868,0.0886,0.0868,0.0927,0.0932,0.0934,0.0903,0.0904,0.0904,0.0882,0.09,0,0,0,0,0,0.0825,0.08,0.081,0.0784,0.0783,0.08,0.0798,0.0806,0.0814,0.0813,0.0821,0.0848,0.0883,0.0888,0.0909,0.0917,0.0933,0.0941,0.0942,0.0941,0.0927,0.0985,0.0988,0.0953,0.0953,0.0953,0,0,0.0808,0.0803,0.0789,0.0777,0.0781,0.0769,0.0798,0.0785,0.0786,0.0813,0.0802,0.0832,0.0883,0.0906,0.0912,0.0917,0.0956,0.0944,0.0943,0.0929,0.0987,0.099,0.0993,0.0955,0.0954,0.0954,0,0,0.0764,0.0756,0.0723,0.0722,0.0718,0.073,0.0718,0.0726,0.074,0.0731,0.0778,0.0812,0.0827,0.089,0.0925,0.0936,0.0952,0.0949,0.0931,0.0987,0.0989,0.0992,0.0993,0.0996,0.0954,0.0954,0.0954,0,0.074,0.0704,0.0713,0.0691,0.0689,0.0706,0.0683,0.0701,0.0704,0.0724,0.0716,0.0795,0.0832,0.0909,0.092,0.0937,0.0942,0.0921,0.0984,0.0988,0.0991,0.0992,0.0996,0.0953,0.0953,0.0953,0.0953,0,0.0684,0.0654,0.0636,0.0614,0.0615,0.0591,0.0624,0.0623,0.0636,0.0667,0.0714,0.0768,0.0818,0.0858,0.0885,0.0949,0.0933,0.0971,0.0975,0.0992,0.0992,0.0996,0.0951,0.0951,0.0952,0.0952,0,0,0.0626,0.0597,0.0591,0.0568,0.0572,0.0562,0.0578,0.0601,0.0611,0.0641,0.0665,0.0758,0.0785,0.0826,0.0886,0.0941,0.097,0.0951,0.0954,0.0934,0.104,0.106,0.1066,0.1009,0.1011,0.1012,0.102,0,0.0571,0.0508,0.0524,0.0474,0.0443,0.0485,0.0499,0.0536,0.0566,0.0589,0.0692,0.0723,0.0779,0.0793,0.0862,0.0938,0.0983,0.096,0.1041,0.1042,0.1046,0.1075,0.1013,0.1019,0.1025,0.1026,0.1026,0,0.0514,0.0475,0.0419,0.0401,0.0396,0.0385,0.041,0.0422,0.0498,0.0527,0.0592,0.0645,0.0733,0.0771,0.0906,0.0878,0.0945,0.1009,0.1012,0.1046,0.1073,0.1012,0.1028,0.1034,0.1033,0.1033,0.1032,0,0.046,0.0408,0.0357,0.0349,0.0338,0.034,0.034,0.0401,0.0418,0.0475,0.0477,0.0594,0.0623,0.0743,0.0862,0.0874,0.0991,0.1036,0.112,0.112,0.1093,0.1089,0.1133,0.1133,0.1133,0.1133,0.1133,0,0.0397,0.0357,0.0322,0.0292,0.025,0.0273,0.0258,0.0287,0.0327,0.0341,0.0426,0.0465,0.0614,0.0701,0.0827,0.0971,0.0968,0.1109,0.1137,0.1077,0.1072,0.1112,0.111,0.1133,0.1133,0.1133,0.1133,0,0.0357,0.0328,0.0267,0.0232,0.0221,0.0193,0.0188,0.0182,0.0217,0.023,0.0237,0.0349,0.0466,0.0609,0.079,0.0911,0.1061,0.1115,0.1005,0.1021,0.1153,0.1148,0.1208,0.1209,0.121,0.1211,0.1212,0,0.0335,0.0292,0.0223,0.0186,0.0167,0.0129,0.0113,0.013,0.0124,0.0182,0.0184,0.028,0.0436,0.0679,0.0891,0.11,0.1065,0.1097,0.1149,0.1146,0.1167,0.1161,0.1155,0.1076,0.1076,0.1075,0.1075,0,0.0296,0.0272,0.0225,0.014,0.0094,0.0049,0.0017,-0.0004,0.0024,0.0093,0.0204,0.0344,0.0573,0.08,0.1006,0.1118,0.1063,0.1098,0.1132,0.108,0.1027,0.1046,0.1043,0.1071,0.1071,0.1072,0.1072,0.1072,0.0283,0.0242,0.0174,0.0104,0.0045,-0.0017,-0.003,-0.0017,0.0033,0.0118,0.0222,0.0434,0.0488,0.0865,0.0996,0.1124,0.1199,0.1141,0.114,0.114,0.1137,0.1091,0.1141,0.1142,0.1143,0.1143,0.1144,0,0.0249,0.021,0.0143,0.0046,-0.0023,-0.003,-0.0071,-0.0029,0.0083,0.0122,0.0298,0.0372,0.0637,0.0733,0.1028,0.1174,0.1165,0.1062,0.1002,0.1006,0.101,0.0998,0.0967,0.0967,0.0966,0.0966,0,0,0.023,0.0151,0.0115,0.0005,-0.0037,-0.0064,-0.0061,0.0041,0.009,0.016,0.0252,0.0376,0.057,0.0609,0.074,0.0899,0.09,0.0876,0.1008,0.0922,0.0923,0.1053,0.1041,0,0,0,0,0]}],[{"header":{"parameterUnit":"m.s-1","parameterCategory":2,"la1":30.2991,"la2":30.254,"lo1":-89.0895,"lo2":-89.0444,"dy":0.0017,"dx":0.0017,"nx":28,"ny":28,"refTime":"2023-05-01T21:00:00:Z","depth":"4","parameterNumber":2,"parameterNumberName":"U-component_of_CURRENTS"},"data":[0,0,0,0,0,0,0,0,0,0,0,0,0,0,0,0,0,0,0,0,0,0,0,0,0,0,0,0,0,0,0,0,0,0,0,0,0,0,0,0,0,0,0,0,0,0,0,0,0,0,0,0,0,0,0,0,0,0,-0.1155,-0.1156,0,-0.126,-0.1261,-0.1262,-0.1308,-0.1307,-0.1307,-0.1307,-0.1367,-0.1369,-0.1371,0,0,0,0,0,0,0,0,0,0,0,0,0,-0.1064,-0.1065,-0.1155,-0.1156,-0.1157,-0.126,-0.1261,-0.1263,-0.1308,-0.1307,-0.1307,-0.1307,-0.1367,-0.1369,-0.1371,0,0,0,0,0,0,0,0,0,0,0,0,0,-0.113,-0.1065,-0.1155,-0.1191,-0.1196,-0.1259,-0.1261,-0.1263,-0.1308,-0.1307,-0.1307,-0.1306,-0.1366,-0.1369,-0.1372,-0.1397,0,0,-0.138,-0.1381,0,0,0,0,0,0,0,0,-0.1126,-0.1133,-0.1185,-0.1189,-0.1194,-0.1269,-0.1251,-0.1305,-0.1308,-0.1266,-0.1307,-0.1306,-0.133,-0.1336,-0.1359,-0.1399,-0.1402,-0.138,-0.1382,-0.1383,-0.1384,0,0,0,0,0,0,0,-0.1121,-0.113,-0.1198,-0.1186,-0.1192,-0.1227,-0.1235,-0.1262,-0.1299,-0.127,-0.1273,-0.1283,-0.1332,-0.1356,-0.136,-0.1403,-0.138,-0.1383,-0.1384,-0.1386,-0.1534,-0.1536,0,0,0,0,0,0,-0.1104,-0.1125,-0.1194,-0.1201,-0.1157,-0.1228,-0.1238,-0.1246,-0.13,-0.1308,-0.1284,-0.1285,-0.1351,-0.1357,-0.1362,-0.1525,-0.1383,-0.1386,-0.1387,-0.1532,-0.1535,-0.1537,0,0,0,0,0,0,-0.1101,-0.1109,-0.119,-0.1164,-0.1177,-0.1229,-0.1239,-0.1249,-0.1292,-0.1311,-0.1318,-0.1319,-0.1351,-0.1358,-0.1399,-0.1522,-0.1387,-0.139,-0.1529,-0.1533,-0.1536,-0.1767,0,0,0,0,0,0,-0.1098,-0.1107,-0.1117,-0.1163,-0.1178,-0.1227,-0.124,-0.1251,-0.1297,-0.13,-0.1343,-0.1347,-0.1351,-0.1395,-0.1402,-0.1524,-0.1392,-0.1526,-0.1531,-0.1535,-0.1756,-0.1778,-0.1796,0,0,0,0,0,-0.1094,-0.1108,-0.1117,-0.1126,-0.1187,-0.1227,-0.1238,-0.1275,-0.1299,-0.1314,-0.1348,-0.1347,-0.1428,-0.1399,-0.1406,-0.1532,-0.1524,-0.153,-0.1535,-0.1747,-0.1773,-0.1795,0,0,0,0,0,0,-0.1077,-0.1115,-0.1126,-0.1151,-0.1184,-0.1234,-0.1257,-0.129,-0.1334,-0.1346,-0.1366,-0.1372,-0.1456,-0.1438,-0.1406,-0.1578,-0.1481,-0.1488,-0.164,-0.1664,-0.1684,-0.1604,-0.1394,0,0,0,0,0,-0.1076,-0.1092,-0.1133,-0.1152,-0.1169,-0.122,-0.1247,-0.1277,-0.1318,-0.1339,-0.1391,-0.1432,-0.1482,-0.1523,-0.1542,-0.1638,-0.1583,-0.1719,-0.174,-0.1757,-0.1693,-0.1848,-0.1879,-0.1554,-0.1554,-0.1554,0,0,-0.1081,-0.1097,-0.1112,-0.1149,-0.118,-0.1206,-0.1236,-0.1283,-0.1307,-0.1337,-0.1414,-0.1492,-0.151,-0.162,-0.166,-0.1629,-0.1795,-0.1764,-0.178,-0.1703,-0.1857,-0.1889,-0.1918,-0.1557,-0.1557,-0.1556,0,0,-0.1075,-0.1106,-0.1112,-0.1145,-0.1188,-0.1215,-0.1232,-0.1313,-0.1346,-0.1443,-0.1472,-0.1582,-0.1693,-0.1727,-0.1757,-0.1877,-0.188,-0.1952,-0.2027,-0.2185,-0.2213,-0.2238,-0.2108,-0.212,-0.1989,-0.199,-0.199,0,-0.1077,-0.108,-0.1122,-0.1138,-0.1162,-0.1218,-0.1236,-0.1276,-0.1371,-0.1432,-0.148,-0.1703,-0.1721,-0.1842,-0.1907,-0.1923,-0.1953,-0.1957,-0.2217,-0.2241,-0.2262,-0.2124,-0.2135,-0.2002,-0.2,-0.1999,-0.1998,0,-0.1064,-0.1084,-0.1094,-0.1121,-0.1161,-0.1186,-0.1242,-0.1298,-0.1396,-0.1501,-0.1679,-0.1766,-0.1903,-0.1981,-0.1991,-0.2182,-0.2122,-0.2219,-0.217,-0.231,-0.2152,-0.2159,-0.2018,-0.2014,-0.2011,-0.2008,0,0,-0.1031,-0.1068,-0.108,-0.1097,-0.1154,-0.1192,-0.1223,-0.1304,-0.1368,-0.1569,-0.1698,-0.1873,-0.2022,-0.205,-0.214,-0.2286,-0.2436,-0.236,-0.2363,-0.2241,-0.2648,-0.2323,-0.2296,-0.2698,-0.2703,-0.2707,-0.2439,0,-0.1,-0.1017,-0.1045,-0.1085,-0.1105,-0.1163,-0.119,-0.1295,-0.1424,-0.1571,-0.1754,-0.1955,-0.2021,-0.2184,-0.2327,-0.2436,-0.2485,-0.2485,-0.251,-0.25,-0.2218,-0.2306,-0.2723,-0.2443,-0.2445,-0.2445,-0.2446,0,-0.0982,-0.0992,-0.1007,-0.1069,-0.1084,-0.1131,-0.1218,-0.1274,-0.146,-0.1584,-0.1833,-0.2016,-0.2221,-0.2303,-0.2493,-0.2548,-0.2569,-0.2624,-0.2621,-0.2229,-0.2194,-0.2294,-0.2456,-0.2455,-0.2455,-0.2454,-0.2453,0,-0.0947,-0.0986,-0.0988,-0.1013,-0.1074,-0.1114,-0.119,-0.1337,-0.1369,-0.1679,-0.1804,-0.2084,-0.224,-0.2427,-0.2444,-0.2605,-0.2544,-0.2775,-0.2417,-0.2383,-0.2654,-0.2631,-0.2846,-0.2846,-0.2847,-0.2847,-0.2848,0,-0.0902,-0.0924,-0.0992,-0.1006,-0.1032,-0.1144,-0.121,-0.1314,-0.1447,-0.1514,-0.1874,-0.1904,-0.234,-0.2344,-0.241,-0.2297,-0.2498,-0.2352,-0.2338,-0.2732,-0.2724,-0.2649,-0.263,-0.2837,-0.2839,-0.2841,-0.2843,0,-0.086,-0.0886,-0.0913,-0.0991,-0.1015,-0.1086,-0.1173,-0.1202,-0.1406,-0.1484,-0.162,-0.1828,-0.1904,-0.2023,-0.218,-0.2178,-0.215,-0.2008,-0.212,-0.2125,-0.1897,-0.1893,-0.1773,-0.176,-0.175,-0.1741,-0.1733,0,-0.0823,-0.0832,-0.09,-0.0905,-0.0944,-0.1033,-0.1031,-0.1173,-0.1192,-0.1334,-0.1329,-0.1469,-0.1585,-0.1422,-0.1614,-0.1607,-0.1629,-0.1585,-0.2046,-0.1809,-0.181,-0.1822,-0.1832,-0.1716,-0.1713,-0.171,-0.1708,0,-0.0752,-0.0792,-0.0804,-0.0819,-0.0835,-0.0822,-0.0883,-0.0843,-0.0975,-0.1133,-0.1083,-0.1169,-0.1117,-0.1235,-0.1133,-0.116,-0.1691,-0.1479,-0.1513,-0.1947,-0.174,-0.1753,-0.1775,-0.167,-0.1676,-0.1679,-0.1681,0,-0.0702,-0.0696,-0.0712,-0.0728,-0.07,-0.063,-0.0681,-0.0664,-0.0672,-0.086,-0.0738,-0.0855,-0.0976,-0.0962,-0.0833,-0.0862,-0.1066,-0.124,-0.1292,-0.1335,-0.1341,-0.1023,-0.0674,0,0,0,0,0,-0.0638,-0.0617,-0.0612,-0.059,-0.0552,-0.0541,-0.0539,-0.0586,-0.0662,-0.059,-0.0694,-0.0635,-0.0655,-0.0647,-0.063,-0.0711,-0.1057,-0.0695,-0.128,-0.1464,-0.1507,-0.157,0,0,0,0,0,0,-0.0589,-0.0571,-0.0572,-0.0449,-0.0406,-0.0334,-0.0321,-0.0389,-0.0366,-0.0483,-0.0452,-0.0621,-0.0588,-0.0639,-0.0616,-0.0632,-0.1004,-0.075,-0.075,-0.1439,-0.1478,-0.1513,-0.1593,0,0,0,0,0]},{"header":{"parameterUnit":"m.s-1","parameterCategory":2,"la1":30.2991,"la2":30.254,"lo1":-89.0895,"lo2":-89.0444,"dy":0.0017,"dx":0.0017,"nx":28,"ny":28,"refTime":"2023-05-01T21:00:00:Z","depth":"4","parameterNumber":3,"parameterNumberName":"V-component_of_CURRENTS"},"data":[0,0,0,0,0,0,0,0,0,0,0,0,0,0,0,0,0,0,0,0,0,0,0,0,0,0,0,0,0,0,0,0,0,0,0,0,0,0,0,0,0,0,0,0,0,0,0,0,0,0,0,0,0,0,0,0,0,0,-0.0058,-0.0058,0,-0.0065,-0.0066,-0.0066,-0.0014,-0.0013,-0.0011,-0.001,-0.0028,-0.003,-0.0032,0,0,0,0,0,0,0,0,0,0,0,0,0,-0.0019,-0.002,-0.0058,-0.0058,-0.0058,-0.0065,-0.0066,-0.0066,-0.0015,-0.0013,-0.0011,-0.0009,-0.0028,-0.003,-0.0033,0,0,0,0,0,0,0,0,0,0,0,0,0,-0.0033,-0.002,-0.0058,-0.0032,-0.003,-0.0065,-0.0066,-0.0066,-0.0015,-0.0013,-0.001,-0.0008,-0.0027,-0.003,-0.0033,-0.0098,0,0,-0.0042,-0.0043,0,0,0,0,0,0,0,0,-0.0032,-0.0035,-0.0036,-0.0034,-0.0032,-0.0035,-0.0058,-0.0077,-0.0016,-0.0022,-0.001,-0.0007,-0.0033,-0.0035,-0.0043,-0.0099,-0.01,-0.0042,-0.0044,-0.0045,-0.0046,0,0,0,0,0,0,0,-0.0032,-0.0034,-0.0062,-0.0036,-0.0033,-0.0027,-0.0026,-0.0062,-0.0042,-0.0021,-0.0017,-0.0017,-0.0031,-0.0041,-0.0044,-0.01,-0.0042,-0.0045,-0.0046,-0.0048,-0.0228,-0.0231,0,0,0,0,0,0,-0.003,-0.0034,-0.0062,-0.0062,-0.0025,-0.0029,-0.0029,-0.0038,-0.0041,-0.0039,-0.0019,-0.0014,-0.0037,-0.004,-0.0044,-0.015,-0.0045,-0.0048,-0.005,-0.0225,-0.0229,-0.0232,0,0,0,0,0,0,-0.0029,-0.0033,-0.0062,-0.0046,-0.0049,-0.0032,-0.0043,-0.0039,-0.004,-0.0039,-0.0036,-0.0022,-0.0035,-0.004,-0.0103,-0.0149,-0.0049,-0.0052,-0.0222,-0.0226,-0.023,-0.0344,0,0,0,0,0,0,-0.0028,-0.0033,-0.0042,-0.0047,-0.005,-0.0097,-0.0045,-0.0041,-0.0043,-0.0037,-0.0042,-0.0041,-0.0034,-0.0099,-0.0106,-0.0151,-0.0054,-0.0218,-0.0224,-0.0229,-0.0336,-0.0351,-0.0365,0,0,0,0,0,-0.0027,-0.0058,-0.0043,-0.0046,-0.0062,-0.0099,-0.0102,-0.0081,-0.0045,-0.0069,-0.008,-0.004,-0.0139,-0.0105,-0.0112,-0.0159,-0.0215,-0.0222,-0.0229,-0.033,-0.0348,-0.0364,0,0,0,0,0,0,-0.0046,-0.0056,-0.0039,-0.0069,-0.0085,-0.009,-0.0107,-0.0089,-0.0115,-0.0109,-0.0092,-0.0096,-0.0169,-0.0156,-0.0118,-0.0228,-0.0166,-0.0175,-0.024,-0.0258,-0.0272,-0.0244,-0.0057,0,0,0,0,0,-0.0055,-0.0079,-0.0085,-0.0111,-0.0119,-0.0112,-0.0121,-0.0115,-0.0134,-0.0139,-0.0145,-0.0162,-0.0208,-0.0223,-0.0259,-0.0325,-0.0252,-0.0357,-0.0371,-0.0383,-0.0367,-0.0238,-0.0237,-0.0254,-0.0254,-0.0254,0,0,-0.0067,-0.0076,-0.0087,-0.0116,-0.0122,-0.0174,-0.0113,-0.0143,-0.0192,-0.0144,-0.0213,-0.0221,-0.024,-0.0319,-0.0347,-0.0308,-0.0366,-0.0392,-0.0402,-0.0379,-0.0245,-0.0242,-0.0239,-0.0259,-0.0258,-0.0258,0,0,-0.012,-0.0114,-0.0156,-0.0181,-0.0204,-0.0219,-0.0229,-0.0247,-0.0254,-0.0328,-0.0309,-0.0355,-0.0404,-0.0437,-0.0458,-0.0577,-0.0451,-0.0567,-0.061,-0.0487,-0.0482,-0.0476,-0.0478,-0.0471,-0.0565,-0.0565,-0.0565,0,-0.0131,-0.0182,-0.0176,-0.023,-0.026,-0.0244,-0.0308,-0.0337,-0.0375,-0.0391,-0.0366,-0.0445,-0.0473,-0.0557,-0.0592,-0.0611,-0.0517,-0.0543,-0.0498,-0.049,-0.0482,-0.0484,-0.0475,-0.0571,-0.0571,-0.057,-0.057,0,-0.0218,-0.0261,-0.0292,-0.0358,-0.0399,-0.0449,-0.0487,-0.053,-0.0532,-0.0539,-0.0602,-0.0632,-0.0664,-0.0688,-0.0677,-0.0663,-0.0615,-0.0532,-0.0439,-0.0486,-0.0488,-0.0477,-0.058,-0.0578,-0.0576,-0.0575,0,0,-0.0238,-0.0332,-0.0343,-0.0386,-0.0465,-0.0507,-0.0607,-0.0674,-0.072,-0.0738,-0.0786,-0.0858,-0.0811,-0.083,-0.0816,-0.0712,-0.0643,-0.0577,-0.0567,-0.0556,-0.0401,-0.0363,-0.0347,-0.0477,-0.0473,-0.0471,-0.0458,0,-0.0302,-0.0416,-0.0457,-0.0576,-0.0635,-0.0671,-0.0755,-0.0813,-0.0855,-0.0905,-0.0897,-0.0945,-0.0884,-0.0895,-0.0789,-0.0668,-0.0597,-0.0658,-0.0376,-0.0372,-0.0306,-0.0325,-0.046,-0.0448,-0.0445,-0.0443,-0.0442,0,-0.0372,-0.0439,-0.0558,-0.0663,-0.069,-0.0773,-0.0887,-0.0964,-0.1031,-0.1051,-0.1069,-0.1041,-0.101,-0.0908,-0.0701,-0.0703,-0.0564,-0.045,-0.0444,-0.034,-0.0305,-0.0369,-0.0419,-0.0421,-0.0423,-0.0424,-0.0426,0,-0.038,-0.0508,-0.06,-0.064,-0.0764,-0.083,-0.0907,-0.1002,-0.1046,-0.1145,-0.1163,-0.1112,-0.1074,-0.0863,-0.0679,-0.0635,-0.0401,-0.0336,-0.0205,-0.0207,-0.0193,-0.0197,-0.0156,-0.0156,-0.0156,-0.0156,-0.0156,0,-0.043,-0.0506,-0.061,-0.0664,-0.0768,-0.0853,-0.0968,-0.1052,-0.1129,-0.1156,-0.1219,-0.1187,-0.1006,-0.0872,-0.0693,-0.0433,-0.0423,-0.0214,-0.0166,-0.0264,-0.0275,-0.0191,-0.0195,-0.0156,-0.0156,-0.0156,-0.0156,0,-0.0438,-0.0504,-0.061,-0.0737,-0.0779,-0.0861,-0.0986,-0.1044,-0.1146,-0.1192,-0.1208,-0.1181,-0.1002,-0.0888,-0.0587,-0.0452,-0.0236,-0.0154,-0.0379,-0.0345,-0.014,-0.0152,-0.0003,-0.0001,0.0001,0.0003,0.0004,0,-0.0462,-0.0512,-0.0641,-0.0697,-0.0766,-0.0882,-0.0938,-0.1045,-0.1074,-0.1139,-0.1112,-0.1035,-0.0991,-0.0646,-0.0474,-0.0253,-0.0174,-0.0132,-0.0032,-0.0139,-0.0108,-0.0122,-0.0136,0.0007,0.0007,0.0008,0.0008,0,-0.0495,-0.0528,-0.0606,-0.0696,-0.0775,-0.0855,-0.0933,-0.0935,-0.1012,-0.1088,-0.1005,-0.0916,-0.075,-0.0544,-0.0426,-0.0224,-0.0192,-0.011,-0.0111,-0.0016,-0.0125,-0.0099,-0.0115,0.0015,0.0014,0.0014,0.0013,0,-0.0505,-0.0549,-0.0615,-0.0698,-0.0773,-0.0805,-0.0866,-0.0861,-0.0886,-0.0934,-0.0855,-0.0803,-0.0742,-0.0522,-0.0364,-0.0235,-0.0141,-0.0067,-0.0068,-0.0074,-0.0077,-0.0225,-0.0064,0,0,0,0,0,-0.0505,-0.0538,-0.0611,-0.0691,-0.0747,-0.0785,-0.0831,-0.0867,-0.0894,-0.0818,-0.085,-0.071,-0.052,-0.0437,-0.0285,-0.0284,-0.0115,-0.0096,-0.003,0.0052,0.0044,0.0061,0,0,0,0,0,0,-0.0509,-0.0563,-0.0593,-0.0637,-0.0682,-0.0733,-0.0761,-0.0794,-0.0736,-0.0764,-0.0655,-0.0648,-0.0455,-0.0618,-0.028,-0.0243,-0.0168,-0.0027,-0.0022,0.0056,0.0049,0.0043,0.0057,0,0,0,0,0]}]]